GSAT0234 (GALILEO 34)

Last updated on Fri Jun 19 2026 17:09:21 GMT+0000 (Coordinated Universal Time)

1 67162U 25302C 26169.10704436 -.00000012 00000+0 00000+0 0 9995 2 67162 54.3376 102.1035 0002962 311.0872 230.0912 1.70473903 3199
UTC large
Height (km)
Speed (km/s)
/
Latitude / Longitude
Inclination (degrees)
Orbital Period (minutes)
Azimuth
Elevation
Range (km)
Doppler Factor

Next 0 passes for location: London (51.5072 / 0.1276)

No passes found over London.
GSAT0234 (GALILEO 34)